Meteo Giornale » Osservazioni meteo Gran Bretagna » Benbecula
ore: 18:50 - Osservazioni Meteo Benbecula
Lat. 57° 28' N Lon. 7° 22' W Alt. 6 metri s.l.m.
14 °C
Molto Nuvoloso
Temp. 24 Ore
13 °C
16 °C
Sud/Sud-Ovest
24 Km/h
Dew point 11 °C
Umidità 82 %
Visibilità 10 Km
Il sole sorge alle ore 06:28
Il sole tramonta alle ore 20:30
| Data e Ora | Cielo e Fenomeni | T °C | DP °C | Um. % | Pres. hPa | Vis. km | Vento km/h | |
|---|---|---|---|---|---|---|---|---|
| Oggi h: 18:50 | Molto Nuvoloso | 14 | 11 | 82 | 1011 | 10 | S/SO 24 | |
| Oggi h: 18:20 | Coperto | 14 | 11 | 82 | 1011 | 10 | SO 24 | |
| Oggi h: 17:50 | Molto Nuvoloso | 14 | 11 | 82 | 1011 | 10 | SO 24 | |
| Oggi h: 17:20 | Molto Nuvoloso | 14 | 11 | 82 | 1011 | 10 | SO 22.2 | |
| Oggi h: 16:50 | Nuvoloso | 15 | 11 | 76 | 1011 | 10 | SO 22.2 | |
| Oggi h: 16:20 | Nuvoloso | 15 | 11 | 76 | 1011 | 10 | O/SO 18.5 | |
| Oggi h: 15:50 | Nuvoloso | 15 | 9 | 67 | 1011 | 10 | O/SO 20.3 | |
| Oggi h: 15:20 | Nuvoloso | 15 | 9 | 67 | 1011 | 10 | O 22.2 | |
| Oggi h: 14:50 | Nuvoloso | 15 | 10 | 72 | 1010 | 10 | O 22.2 | |
| Oggi h: 14:20 | Nuvoloso | 16 | 10 | 67 | 1010 | 10 | O 24 | |
| Oggi h: 13:50 | Nuvoloso | 15 | 11 | 76 | 1010 | 10 | O 24 | |
| Oggi h: 13:20 | Nuvoloso | 16 | 10 | 67 | 1010 | 10 | O 24 | |
| Oggi h: 12:50 | Nuvoloso | 15 | 10 | 72 | 1009 | 10 | O/NO 20.3 | |
| Oggi h: 12:20 | Pioggia nelle vicinanze | 15 | 9 | 67 | 1009 | 10 | O/NO 24 | |
| Oggi h: 11:50 | Pioggia nelle vicinanze | 15 | 9 | 67 | 1008 | 10 | O/NO 24 | |
| Oggi h: 11:20 | Pioggia nelle vicinanze | 15 | 10 | 72 | 1008 | 10 | O/NO 27.8 | |
| Oggi h: 10:50 | Pioggia nelle vicinanze | 14 | 10 | 76 | 1008 | 10 | O/NO 25.9 | |
| Oggi h: 10:20 | Pioggia nelle vicinanze | 14 | 10 | 76 | 1007 | 10 | O/NO 25.9 | |
| Oggi h: 09:50 | Pioggia nelle vicinanze | 14 | 11 | 82 | 1007 | 10 | O/NO 31.5 | |
| Oggi h: 09:20 | Pioggia | 14 | 11 | 82 | 1006 | 10 | O/NO 33.3 | |
| Oggi h: 08:50 | Pioggia nelle vicinanze | 14 | 12 | 87 | 1006 | 10 | O/NO 33.3 | |
| Oggi h: 08:20 | Pioggia nelle vicinanze | 14 | 12 | 87 | 1005 | 10 | O 25.9 | |
| Oggi h: 07:50 | Pioggia nelle vicinanze | 14 | 12 | 87 | 1005 | 10 | O 20.3 | |
| Oggi h: 07:20 | Molto Nuvoloso | 14 | 13 | 93 | 1005 | 10 | O 22.2 | |
| Oggi h: 06:50 | Molto Nuvoloso | 14 | 12 | 87 | 1004 | 10 | O 22.2 | |
| Oggi h: 06:20 | Coperto | 14 | 13 | 93 | 1004 | 10 | O 18.5 | |
| Oggi h: 05:50 | Coperto | 14 | 13 | 93 | 1004 | 10 | O 20.3 | |
| Oggi h: 05:20 | Coperto | 14 | 14 | 100 | 1004 | 10 | O 16.7 | |
| Oggi h: 04:50 | Coperto | 15 | 14 | 93 | 1003 | 10 | SO 9.3 | |
| Oggi h: 04:20 | Coperto | 15 | 14 | 93 | 1003 | 10 | S/SO 11.1 | |
| Oggi h: 03:50 | Coperto | 15 | 14 | 93 | 1003 | 10 | SO 11.1 | |
| Oggi h: 03:20 | Coperto | 15 | 14 | 93 | 1003 | 10 | S/SO 9.3 | |
| Oggi h: 02:50 | Coperto | 14 | 14 | 100 | 1003 | 10 | SO 9.3 | |
| Oggi h: 02:20 | Coperto | 14 | 14 | 100 | 1003 | 10 | S/SO 9.3 | |
| Oggi h: 01:20 | Coperto | 14 | 13 | 93 | 1003 | 10 | N 5.5 | |
| Oggi h: 00:50 | Coperto | 14 | 13 | 93 | 1003 | 10 | S 7.4 | |
| Oggi h: 00:20 | Coperto | 13 | 13 | 100 | 1003 | 10 | N 3.7 | |
| Ieri h: 23:50 | Coperto | 13 | 13 | 100 | 1003 | 10 | N 3.7 | |
| Ieri h: 23:20 | Coperto | 14 | 13 | 93 | 1003 | 10 | N 3.7 | |
| Ieri h: 22:50 | Coperto | 14 | 13 | 93 | 1003 | 10 | E 7.4 | |
| Ieri h: 22:20 | Coperto | 14 | 14 | 100 | 1003 | 10 | E/SE 7.4 | |
| Ieri h: 21:50 | Coperto | 14 | 13 | 93 | 1003 | 10 | N 3.7 | |
| Ieri h: 21:20 | Coperto | 14 | 14 | 100 | 1003 | 10 | N 1.8 | |
| Ieri h: 20:50 | Pioggia | 14 | 14 | 100 | 1003 | 10 | N 1.8 | |
| Ieri h: 20:20 | Pioggia | 14 | 14 | 100 | 1002 | 7 | N 0 | |
| Ieri h: 19:50 | Pioggia | 15 | 14 | 93 | 1002 | 10 | N 0 | |



